Weather History for Hallock, MN

Change the Weather History Date:

Monday, January 21, 2013

  Actual Average Record
Temperature  
Mean Temperature -14 °F -  
Max Temperature -9 °F 14 °F 42 °F (1942)
Min Temperature -20 °F -3 °F -41 °F (1936)
Degree Days  
Heating Degree Days 80    
Moisture  
Dew Point -23 °F    
Average Humidity 70    
Maximum Humidity 77    
Minimum Humidity 63    
Precipitation  
Precipitation 0.00 in - - ()
Sea Level Pressure  
Sea Level Pressure 30.28 in    
Wind  
Wind Speed 0 mph (North)    
Max Wind Speed 0 mph    
Max Gust Speed -    
Visibility 10 miles    
Events      
Averages and records for this station are not official NWS values.
T = Trace of Precipitation, MM = Missing Value Source: NWS Daily Summary

Daily Weather History Graph

Daily Weather History Graph

Search for Another Location

Airport:

Trip Planner

Search our weather history database for the weather conditions in past years. The results will help you decide how hot, cold, wet, or windy it might be!

Date:

Astronomy

Jan. 21, 2013 Rise Set
Actual Time 8:10 AM CST 5:08 PM CST
Civil Twilight 7:35 AM CST 5:43 PM CST
Nautical Twilight 6:56 AM CST 6:22 PM CST
Astronomical Twilight 6:19 AM CST 6:59 PM CST
Moon 12:47 PM CST (1/21) 3:40 AM CST (1/21)
Length of Visible Light 10h 08m
Length of Day
8h 58m
Waxing Gibbous, 75% of the Moon is Illuminated
Jan 21
Waxing Gibbous
Jan 26
Full
Feb 3
Last Quarter
Feb 10
New
Feb 17
First Quarter

Hourly Weather History & Observations

Time (CST) Temp. Dew Point Humidity Pressure Visibility Wind Dir Wind Speed Gust Speed Precip Events Conditions
12:14 AM -16.6 °F -23.8 °F 70% 30.32 in 10.0 mi Calm Calm - N/A   Clear
12:34 AM -18.4 °F -23.8 °F 76% 30.31 in 10.0 mi Calm Calm - N/A   Clear
12:54 AM -18.4 °F -23.8 °F 76% 30.31 in 10.0 mi Calm Calm - N/A   Clear
1:14 AM -18.4 °F -23.8 °F 76% 30.31 in 10.0 mi Calm Calm - N/A   Clear
1:34 AM -18.4 °F -23.8 °F 76% 30.31 in 10.0 mi Calm Calm - N/A   Clear
1:54 AM -16.6 °F -23.8 °F 70% 30.31 in 7.0 mi Calm Calm - N/A   Clear
2:14 AM -16.6 °F -23.8 °F 70% 30.31 in 7.0 mi Calm Calm - N/A   Clear
2:34 AM -16.6 °F -23.8 °F 70% 30.31 in 10.0 mi Calm Calm - N/A   Clear
2:54 AM -16.6 °F -23.8 °F 70% 30.31 in 10.0 mi Calm Calm - N/A   Clear
3:14 AM -18.4 °F -23.8 °F 76% 30.31 in 10.0 mi Calm Calm - N/A   Clear
3:34 AM -18.4 °F -23.8 °F 76% 30.30 in 10.0 mi Calm Calm - N/A   Clear
3:54 AM -16.6 °F -25.6 °F 64% 30.29 in 10.0 mi Calm Calm - N/A   Clear
4:14 AM -18.4 °F -25.6 °F 70% 30.29 in 10.0 mi Calm Calm - N/A   Clear
4:34 AM -18.4 °F -25.6 °F 70% 30.29 in 10.0 mi Calm Calm - N/A   Clear
4:54 AM -18.4 °F -25.6 °F 70% 30.29 in 10.0 mi Calm Calm - N/A   Clear
5:14 AM -20.2 °F -27.4 °F 69% 30.28 in 10.0 mi Calm Calm - N/A   Clear
5:34 AM -20.2 °F -27.4 °F 69% 30.28 in 10.0 mi Calm Calm - N/A   Clear
5:54 AM -20.2 °F -27.4 °F 69% 30.28 in 10.0 mi Calm Calm - N/A   Clear
6:14 AM -20.2 °F -27.4 °F 69% 30.27 in 10.0 mi Calm Calm - N/A   Clear
6:34 AM -20.2 °F -27.4 °F 69% 30.27 in 10.0 mi Calm Calm - N/A   Clear
6:54 AM -20.2 °F -27.4 °F 69% 30.28 in 10.0 mi Calm Calm - N/A   Clear
7:14 AM -20.2 °F -27.4 °F 69% 30.27 in 10.0 mi Calm Calm - N/A   Clear
7:34 AM -20.2 °F -27.4 °F 69% 30.27 in 10.0 mi Calm Calm - N/A   Clear
7:54 AM -20.2 °F -27.4 °F 69% 30.27 in 10.0 mi Calm Calm - N/A   Clear
8:14 AM -20.2 °F -27.4 °F 69% 30.27 in 10.0 mi Calm Calm - N/A   Clear
8:34 AM -20.2 °F -27.4 °F 69% 30.27 in 10.0 mi Calm Calm - N/A   Clear
8:54 AM -18.4 °F -27.4 °F 63% 30.27 in 10.0 mi Calm Calm - N/A   Clear
9:14 AM -18.4 °F -25.6 °F 70% 30.27 in 10.0 mi Calm Calm - N/A   Clear
9:34 AM -18.4 °F -25.6 °F 70% 30.27 in 10.0 mi Calm Calm - N/A   Clear
9:54 AM -16.6 °F -23.8 °F 70% 30.27 in 10.0 mi Calm Calm - N/A   Clear
10:14 AM -16.6 °F -23.8 °F 70% 30.28 in 10.0 mi Calm Calm - N/A   Clear
10:34 AM -14.8 °F -23.8 °F 64% 30.27 in 10.0 mi Calm Calm - N/A   Clear
10:54 AM -14.8 °F -23.8 °F 64% 30.28 in 10.0 mi Calm Calm - N/A   Clear
11:14 AM -14.8 °F -22.0 °F 70% 30.28 in 10.0 mi Calm Calm - N/A   Clear
11:34 AM -13.0 °F -20.2 °F 70% 30.28 in 10.0 mi Calm Calm - N/A   Scattered Clouds
11:54 AM -13.0 °F -20.2 °F 70% 30.28 in 10.0 mi Calm Calm - N/A   Scattered Clouds
12:14 PM -13.0 °F -20.2 °F 70% 30.28 in 5.0 mi North - - N/A   Haze
12:34 PM -13.0 °F -20.2 °F 70% 30.28 in 10.0 mi North - - N/A   Clear
12:54 PM -11.2 °F -20.2 °F 64% 30.27 in 7.0 mi North - - N/A   Clear
1:14 PM -11.2 °F -18.4 °F 70% 30.27 in 7.0 mi North - - N/A   Clear
1:34 PM -11.2 °F -18.4 °F 70% 30.26 in 10.0 mi North - - N/A   Clear
1:54 PM -11.2 °F -18.4 °F 70% 30.26 in 10.0 mi North - - N/A   Clear
2:14 PM -11.2 °F -18.4 °F 70% 30.26 in 10.0 mi North - - N/A   Clear
2:34 PM -11.2 °F -18.4 °F 70% 30.27 in 10.0 mi North - - N/A   Clear
2:54 PM -11.2 °F -18.4 °F 70% 30.27 in 10.0 mi North - - N/A   Clear
3:14 PM -11.2 °F -18.4 °F 70% 30.27 in 10.0 mi North - - N/A   Clear
3:34 PM -9.4 °F -18.4 °F 65% 30.27 in 10.0 mi North - - N/A   Clear
3:53 PM -9.4 °F -18.4 °F 65% 30.28 in 10.0 mi North - - N/A   Clear
4:14 PM -11.2 °F -18.4 °F 70% 30.28 in 10.0 mi North - - N/A   Clear
4:34 PM -11.2 °F -18.4 °F 70% 30.28 in 10.0 mi North - - N/A   Clear
4:54 PM -11.2 °F -18.4 °F 70% 30.27 in 10.0 mi North - - N/A   Clear
5:14 PM -13.0 °F -20.2 °F 70% 30.27 in 10.0 mi North - - N/A   Clear
5:34 PM -13.0 °F -20.2 °F 70% 30.27 in 10.0 mi North - - N/A   Clear
5:54 PM -14.8 °F -22.0 °F 70% 30.26 in 10.0 mi North - - N/A   Clear
6:14 PM -14.8 °F -20.2 °F 77% 30.27 in 10.0 mi North - - N/A   Clear
6:34 PM -16.6 °F -23.8 °F 70% 30.27 in 10.0 mi North - - N/A   Clear
6:54 PM -16.6 °F -23.8 °F 70% 30.27 in 10.0 mi North - - N/A   Clear
7:14 PM -16.6 °F -23.8 °F 70% 30.27 in 10.0 mi North - - N/A   Clear
7:34 PM -18.4 °F -23.8 °F 76% 30.27 in 10.0 mi North - - N/A   Clear
7:54 PM -18.4 °F -23.8 °F 76% 30.27 in 10.0 mi North - - N/A   Clear
8:14 PM -18.4 °F -23.8 °F 76% 30.26 in 10.0 mi North - - N/A   Clear
8:34 PM -18.4 °F -25.6 °F 70% 30.26 in 10.0 mi North - - N/A   Clear
8:54 PM -18.4 °F -25.6 °F 70% 30.26 in 10.0 mi North - - N/A   Clear
9:14 PM -18.4 °F -25.6 °F 70% 30.26 in 10.0 mi North - - N/A   Clear
9:33 PM -18.4 °F -25.6 °F 70% 30.26 in 10.0 mi North - - N/A   Clear
9:54 PM -18.4 °F -25.6 °F 70% 30.26 in 10.0 mi North - - N/A   Clear
10:14 PM -18.4 °F -25.6 °F 70% 30.26 in 10.0 mi North - - N/A   Clear
10:34 PM -18.4 °F -25.6 °F 70% 30.26 in 10.0 mi North - - N/A   Clear
10:54 PM -18.4 °F -25.6 °F 70% 30.26 in 10.0 mi North - - N/A   Clear
11:14 PM -18.4 °F -25.6 °F 70% 30.27 in 10.0 mi North - - N/A   Clear
11:34 PM -20.2 °F -25.6 °F 76% 30.28 in 10.0 mi North - - N/A   Clear
11:54 PM -20.2 °F -25.6 °F 76% 30.29 in 10.0 mi North - - N/A   Clear